Preview of NWS' New Version of Forecast
This preview is not operational and should not be used for support decisions.

Regional Weather Roundup (RWR)

Issued by Gray - Portland, ME (GYX)

                            
834 
ASUS41 KGYX 202305
RWRGYX
WEATHER ROUNDUP FOR MAINE AND NEW HAMPSHIRE
NATIONAL WEATHER SERVICE GRAY ME
600 PM EST TUE FEB 20 2018

MEZ002-005-006-010-012-015-018-020-021-024-026-027-029-210000-
MAINE
  
CITY           SKY/WX    TMP DP  RH WIND       PRES   REMARKS
PORTLAND       FOG       41  41 100 VRB6      30.26R VSB 1/4          
SANFORD        FOG       41  41 100 NE3       30.26R VSB 1/2          
BAR HARBOR     CLOUDY    40  39  97 E5        30.27R                  
WISCASSET      FOG       40  39  97 CALM      30.28R VSB 1/2          
ROCKLAND       FOG       39  39 100 NE6       30.27R VSB 1/2          
FRYEBURG       CLOUDY    41  38  89 CALM      30.25S                  
LEWISTONAUBURN LGT RAIN  37  37 100 N5        30.27R VSB 1/4          
AUGUSTA        FOG       37  36  96 NW6       30.27R VSB 1/4          
WATERVILLE     FOG       38  38 100 CALM      30.22R VSB 1/4          
BANGOR         DRZL/FOG  36  36 100 CALM      30.27R VSB 1/2          
GREENVILLE       N/A     35  35 100 SE7       30.20R                  
MILLINOCKET    LGT RAIN  36  36 100 NE3       30.30R VSB 1/2          
HOULTON        LGT RAIN  37  35  92 E7        30.30R FOG              
PRESQUE ISLE   LGT RAIN  35  34  96 E6        30.32R FOG              
FRENCHVILLE    LGT SNOW  31  30  96 E10       30.28R FOG              
CARIBOU        LGT RAIN  36  33  89 E8        30.30R FOG              
$$

NHZ002-005-008-009-011-012-014-210000-
NEW HAMPSHIRE
  
CITY           SKY/WX    TMP DP  RH WIND       PRES   REMARKS
PORTSMOUTH     CLOUDY    43  42  96 E7        30.23R FOG              
ROCHESTER      MOCLDY    44  43  96 NE3       30.24                   
NASHUA         FAIR      58  53  84 CALM      30.21R                  
MANCHESTER     FAIR      58  49  72 E3        30.19R                  
CONCORD        FAIR      51  47  86 CALM      30.21R                  
LACONIA        CLOUDY    41  38  89 CALM      30.24R                  
PLYMOUTH       CLOUDY    38  35  88 CALM      30.24R                  
BERLIN         CLOUDY    39  38  96 CALM      30.19R                  
WHITEFIELD     CLOUDY    39  39 100 CALM      30.18R FOG              
JAFFREY        FAIR      49  49 100 CALM      30.22R                  
KEENE          FAIR      44  40  85 CALM      30.23R FOG              
LEBANON        CLOUDY    42  41  96 S5        30.19R                  
MT WASHINGTON  FOG       41  41 100 W59         N/A  VSB 0            
$$

VTZ005-007-008-210000-
VERMONT
  
CITY           SKY/WX    TMP DP  RH WIND       PRES   REMARKS
ST JOHNSBURY     N/A     40  40 100 MISG      30.16R                  
MONTPELIER     CLOUDY    51  49  92 S10       30.20R                  
BURLINGTON     CLOUDY    54  49  83 S10       30.14R                  
$$

MAZ007-012-024-CTZ003-RIZ002-NYZ038-NYZ072-210000-
SOUTHERN NEW ENGLAND AND NY
  
CITY           SKY/WX    TMP DP  RH WIND       PRES   REMARKS
BOSTON         FAIR      48  44  86 NE7       30.24R                  
WORCESTER      FAIR      61  51  70 SW10      30.26R                  
NANTUCKET      FOG       44  44 100 SW12      30.33S VSB 1/4          
PROVIDENCE     MOCLDY    54  51  90 S9        30.28R                  
HARTFORD       FAIR      60  52  74 S10       30.26R                  
ALBANY         MOCLDY    62  49  62 S9        30.19R                  
NEW YORK CITY  MOCLDY    63  51  65 S3        30.29R                  
$$

ANZ081-ANZ082-ANZ150-NHZ014-MEZ023>029-210000-
COASTAL MARINE OBSERVATIONS
  
STATION/POSITION TIME  TEMP    WIND        PRES    WAVE
                       AIR SEA DIR/SP/G            HT/PER
                 (UTC) (F)     (DEG/KT/KT) (MB)    (FT/S)
MOUNT DESERT ROC 2300   42      50/ 10/ 10 1024.7R
JEFFREYS LEDGE   2236      43                N/A     5/12
GEORGES BANK BUO 2150   57 61              1025.0   11/ 8
$$

.............KEY..............
   WCI - WIND CHILL
   TC  - TEMPERATURE IN CELSIUS
   VSB - VISIBILITY IN MILES
   HX  - HEAT INDEX
   FAIR- INDICATES FEW OR NO CLOUDS BELOW 12,000 FT, WITH NO 
         SIGNIFICANT WEATHER AND/OR OBSTRUCTIONS TO VISIBILITY.